[ hide orbit diagram ]
For accurate long-term ephemerides, please instead use our Horizons system.This orbit viewer was implemented using two-body methods, and hence should not be used for determining accurate long-term trajectories (over several years or decades) or planetary encounter circumstances.
Orbital Elements at Epoch 2459200.5 (2020-Dec-17.0) TDB
Reference: JPL 30 (heliocentric ecliptic J2000)
Element | Value | Uncertainty (1-sigma) | Units |
e | .2692006629155966 | 3.0134e-08 | |
a | 2.266963685849609 | 4.1222e-09 | au |
q | 1.65669555881331 | 6.9153e-08 | au |
i | 1.940231061974212 | 3.2873e-06 | deg |
node | 353.0235457185925 | 7.7867e-05 | deg |
peri | 347.0181381969182 | 7.8027e-05 | deg |
M | 22.31435991780433 | 4.4593e-06 | deg |
tp | 2459123.223542540740 (2020-Sep-30.72354254) | 1.5436e-05 | TDB |
period | 1246.709508487251 3.41 | 3.4005e-06 9.31e-09 | d yr |
n | .2887601302061309 | 7.8762e-10 | deg/d |
Q | 2.877231812885908 | 5.232e-09 | au |
|
| | Orbit Determination Parameters
Additional Information
|
[ show covariance matrix ]
Physical Parameter Table
Parameter |
Symbol |
Value |
Units |
Sigma |
Reference |
Notes |
absolute magnitude |
H |
14.02 |
|
n/a |
E2021B10 |
|
rotation period |
rot_per |
54.778 |
h |
n/a |
LCDB (Rev. 2020-October); Warner et al., 2009 |
Published Reference List: [Skiff, B.A. (2011) Posting on CALL web site. http://www.minorplanet.info/call.html] [Waszczak, A.; Chang, C.-K.; Ofeck, E.O.; Laher, F.; et al. (2015) Astron. J. 150, A75.] [Skiff, B.A.; McLelland, K.P.; Sanborn, J.; Pravec, P.; Koehn, B.W. (2019). Minor Planet Bull. 46, 458-503.] |
|
8444 Popovich | Discovered 1969 Oct. 8 by L. I. Chernykh at the Crimean Astrophysical Observatory. |
Pavel Romanovich Popovich (b. 1930), a Soviet cosmonaut and specialist in space engineering, participated in the flights of Vostok 4, Soyuz 14 and Salyut 3. He was the first person admitted to the cosmonaut detachment in 1960 and one of the first six candidates selected for training for the first space flights. |
NOTE: some special characters may not display properly (any characters within {} are an attempt to place the proper accent above a character) |
Reference: 20010902/MPCPages.arc | Last Updated: 2009-05-11 |
|
[ hide close-approach data ]
Close-Approach Data ...sorted by Date/Time (TDB)
|
Date/Time (TDB) |
Time Uncertainty (days_HH:MM) |
Body |
Nominal Distance (au) |
Minimum Distance (au) |
Maximum Distance (au) |
V-relative (km/s) |
V-infinity (km/s) |
JD (TDB) |
Time Uncertainty (minutes) |
Semi-major axis (km) |
Semi-minor axis (km) |
range-LOV angle (deg) |
N-sigma |
BP |
Orbit Ref. |
Reference |
Modified |
2032-May-16 14:33 |
< 00:01 |
Europ |
0.0371675218881005 |
0.0371664531928417 |
0.0371685905946859 |
4.35839594689164 |
4.35839588127992 |
2463369.106408074 |
0.744226446533786 |
63.9268377712417 |
21.5337345765044 |
35.9693728509725 |
167100.807920822 |
T |
30 |
CATAB v2.0f-lin.ifort 2021-Feb-24 01:43:25 |
2021-Feb-24 01:43 |
|
Alternate Designations
1969 TR1 = 1928 SK = 1986 TA |
|
|